Regional Weather Roundup
Issued by NWS

Home | Current Version | Previous Version | Text Only | Print | Product List | Glossary On
Versions: 1 2 3 4 5 6 7 8 9 10 11 12 13 14 15 16 17 18 19 20 21 22 23 24 25 26 27 28 29 30 31 32 33 34 35 36 37 38 39 40 41 42 43 44 45 46 47 48 49 50
000
ASUS45 KABQ 190201
RWRNM
NEW MEXICO REGIONAL WEATHER ROUNDUP
NATIONAL WEATHER SERVICE ALBUQUERQUE NM
800 PM MDT FRI AUG 18 2017

NOTE: "FAIR" MEANS FEW OR NO CLOUDS BELOW 12,000 FEET AGL WITH NO
       SIGNIFICANT WEATHER OR OBSTRUCTIONS TO VISION.

      THIS PRODUCT IS RELEASED AS TWO VERSIONS.  ONE VERSION NEAR
      THE TOP OF THE HOUR CONTAINING PRELIMINARY DATA FROM ALBUQUERQUE
      AND OTHER STATIONS.  A FINAL VERSION WITH ADDITIONAL DATA IS
      ISSUED ABOUT 10 MINUTES AFTER THE HOUR.

NMZ501-503-504-510>518-190300-
NORTHWEST PLATEAU/NORTHCENTRAL MOUNTAINS

CITY           SKY/WX    TMP DP  RH WIND       PRES   REMARKS
FARMINGTON     FAIR      84  26  12 NW3       30.12F
LOS ALAMOS     FAIR      76  32  19 SW7       30.29S
SANTA FE       FAIR      81  31  16 W5        30.20S
TAOS           FAIR      73  35  25 SE5       30.29S
ANGEL FIRE     FAIR      66  48  52 SE3       30.41R

$$
NMZ402-403-502-505>509-190300-
WESTCENTRAL MOUNTAINS/SOUTHWEST MOUNTAINS

CITY           SKY/WX    TMP DP  RH WIND       PRES   REMARKS
GALLUP         FAIR      82  27  13 NW8       30.21S
GRANTS         FAIR      78  26  15 SE3       30.23R
SILVER CITY    FAIR      84  40  21 W3        30.15R

$$
NMZ407-409-411-412-190300-
SOUTHERN DESERTS

CITY           SKY/WX    TMP DP  RH WIND       PRES   REMARKS
DEMING         FAIR      87  44  22 S6        30.05S
LAS CRUCES     FAIR      86  43  22 SE7       30.08S
HOLLOMAN AFB   FAIR      90  49  24 SE15      30.06R
ALAMOGORDO     FAIR      86  48  26 SE8       30.07R
T OR C         FAIR      90  37  15 S6        30.07R

$$
NMZ519>523-190300-
CENTRAL VALLEYS/CENTRAL HIGHLANDS

CITY           SKY/WX    TMP DP  RH WIND       PRES   REMARKS
ALBUQUERQUE    FAIR      88  25  10 S5        30.13R
DOUBLE EAGLE   PTCLDY    79  39  24 VRB5      30.17S
CLINES CORNERS FAIR      70  47  43 SE9       30.31R
BELEN          NOT AVBL
SOCORRO        NOT AVBL

$$
NMZ524>526-539-540-190300-
SOUTHCENTRAL MOUNTAINS

CITY           SKY/WX    TMP DP  RH WIND       PRES   REMARKS
RUIDOSO        FAIR      66  48  52 E5        30.34S

$$
NMZ527>531-190300-
NORTHEAST HIGHLANDS/NORTHEAST PLAINS

CITY           SKY/WX    TMP DP  RH WIND       PRES   REMARKS
LAS VEGAS      FAIR      68  49  50 SE12      30.29R
RATON          FAIR      73  54  51 S12       30.23R
CLAYTON        FAIR      70  62  76 S8        30.16S

$$
NMZ532>537-190300-
EASTCENTRAL PLAINS

CITY           SKY/WX    TMP DP  RH WIND       PRES   REMARKS
SANTA ROSA     FAIR      78  52  40 SE7       30.11S
TUCUMCARI      FAIR      83  59  44 S7        30.05R
CANNON AFB     FAIR      76  71  84 SE7       30.12S
CLOVIS AIRPORT FAIR      74  66  76 S7        30.12R

$$
NMZ028-029-538-190300-
SOUTHEAST PLAINS

CITY           SKY/WX    TMP DP  RH WIND       PRES   REMARKS
ROSWELL        CLOUDY    85  56  37 W15       30.09R
ARTESIA        FAIR      82  59  44 NW16G23   30.08R
CARLSBAD       FAIR      83  64  52 S14G23    30.04R
HOBBS          FAIR      81  61  50 S9G16     30.09R


$$




USA.gov is the U.S. government's official web portal to all federal, state and local government web resources and services.